Tracking 25612 objects as of 19-May-2022
HD Live streaming from Space Station
objects crossing your sky now

COSMOS 2251 DEB

Track COSMOS 2251 DEB now!
10-day predictions


NORAD ID: 35721
Int'l Code: 1993-036AQS
Perigee: 705.1 km
Apogee: 962.3 km
Inclination: 74.0 °
Period: 101.4 minutes
Semi major axis: 7204 km
RCS: 0.0071 m2 (small)
Launch date: June 16, 1993
Source: Commonwealth of Independent States (former USSR) (CIS)
Launch site: PLESETSK MISSILE AND SPACE COMPLEX (PKMTR)

Note: This is SATELLITE DEBRIS
aabbcc
Your satellite tracking list
Your tracking list is empty




NASA's NSSDC Master Catalog

Two Line Element Set (TLE):
1 35721U 93036AQS 22135.03594483  .00003859  00000-0  15667-2 0  9990
2 35721  73.9575  32.3929 0178508 103.6789 258.4300 14.19639416391501
Source of the keplerian elements: AFSPC